Location: Altenst�hlen
(53.5567°N, 8.9425°E)
Time: 11:19:50
(UTC+00:00)

STARLINK-74 - Pass Details

Date: 23 October 2019
Orbit: 548 x 551 km, 53.0° (Epoch: 17 November)

Event Time Altitude Azimuth Distance (km) Brightness Sun altitude
Rises 17:46:35 0° 276° (W) 2,719 9.1 -14.8°
Reaches altitude 10° 17:48:49 10° 275° (W) 1,825 7.7 -15.2°
Maximum altitude 17:52:57 78° 191° (S) 567 3.6 -15.8°
Enters shadow 17:54:52 31° 108° (ESE) 984 4.3 -16.1°
